Fort Greely, AK

12:28 AM AKST on February 24, 2017 (GMT -0900)
Allen Army Air Field

Weather History for PABI - October, 2011

Change the Weather History Date:

Saturday, October 22, 2011

  Actual Average Record
Temperature  
Mean Temperature 23 °F -  
Max Temperature 27 °F 23 °F 44 °F (2002)
Min Temperature 19 °F 11 °F -9 °F (1996)
Degree Days  
Heating Degree Days 42    
Moisture  
Dew Point 17 °F    
Average Humidity 79    
Maximum Humidity 92    
Minimum Humidity 69    
Precipitation  
Precipitation 0.00 in - - ()
Sea Level Pressure  
Sea Level Pressure 29.55 in    
Wind  
Wind Speed 15 mph (ESE)    
Max Wind Speed 21 mph    
Max Gust Speed 28 mph    
Visibility 10 miles    
Events      
Averages and records for this station are not official NWS values.
T = Trace of Precipitation, MM = Missing Value Source: NWS Daily Summary

Daily Weather History Graph

Daily Weather History Graph

Search for Another Location

Airport or City:

Trip Planner

Search our weather history database for the weather conditions in past years. The results will help you decide how hot, cold, wet, or windy it might be!

Date:

Astronomy

Oct. 22, 2011 Rise Set
Actual Time 8:53 AM AKDT 5:59 PM AKDT
Civil Twilight 8:03 AM AKDT 6:49 PM AKDT
Nautical Twilight 7:08 AM AKDT 7:44 PM AKDT
Astronomical Twilight 6:13 AM AKDT 8:39 PM AKDT
Moon 2:28 AM AKDT (10/22) 4:39 PM AKDT (10/22)
Length of Visible Light 10h 45m
Length of Day
9h 05m
Waning Crescent, 22% of the Moon is Illuminated
Oct 22
Waning Crescent
Oct 26
New
Nov 2
First Quarter
Nov 10
Full
Nov 18
Last Quarter

Hourly Weather History & Observations

Time (AKDT) Temp. Windchill Dew Point Humidity Pressure Visibility Wind Dir Wind Speed Gust Speed Precip Events Conditions
12:53 AM 24.1 °F 9.4 °F 17.1 °F 75% 29.48 in 10.0 mi ESE 20.7 mph 27.6 mph N/A   Clear
1:53 AM 24.1 °F 10.1 °F 17.1 °F 75% 29.47 in 10.0 mi ESE 18.4 mph 27.6 mph N/A   Clear
2:53 AM 23.0 °F 10.1 °F 17.1 °F 78% 29.48 in 10.0 mi ESE 15.0 mph - N/A   Clear
3:53 AM 24.1 °F 10.1 °F 17.1 °F 75% 29.48 in 10.0 mi ESE 18.4 mph 24.2 mph N/A   Clear
4:53 AM 23.0 °F 8.7 °F 17.1 °F 78% 29.48 in 10.0 mi ESE 18.4 mph - N/A   Clear
5:53 AM 23.0 °F 8.3 °F 17.1 °F 78% 29.49 in 10.0 mi ESE 19.6 mph 27.6 mph N/A   Clear
6:53 AM 23.0 °F 8.7 °F 18.0 °F 81% 29.50 in 10.0 mi ESE 18.4 mph - N/A   Scattered Clouds
7:53 AM 23.0 °F 10.6 °F 17.1 °F 78% 29.51 in 10.0 mi ESE 13.8 mph - N/A   Scattered Clouds
8:53 AM 21.9 °F 7.8 °F 17.1 °F 82% 29.52 in 10.0 mi ESE 17.3 mph - N/A   Scattered Clouds
9:53 AM 21.9 °F 8.2 °F 17.1 °F 82% 29.53 in 10.0 mi ESE 16.1 mph - N/A   Scattered Clouds
10:53 AM 23.0 °F 9.2 °F 18.0 °F 81% 29.53 in 10.0 mi ESE 17.3 mph - N/A   Scattered Clouds
11:53 AM 25.0 °F 11.7 °F 18.0 °F 75% 29.54 in 10.0 mi ESE 17.3 mph - N/A   Scattered Clouds
12:53 PM 26.1 °F 13.1 °F 18.0 °F 71% 29.55 in 10.0 mi ESE 17.3 mph - N/A   Mostly Cloudy
1:53 PM 26.1 °F 13.6 °F 18.0 °F 71% 29.55 in 10.0 mi ESE 16.1 mph - N/A   Scattered Clouds
2:53 PM 27.0 °F 16.1 °F 19.0 °F 72% 29.56 in 10.0 mi ESE 12.7 mph - N/A   Mostly Cloudy
3:53 PM 27.0 °F 18.7 °F 18.0 °F 69% 29.56 in 10.0 mi East 8.1 mph - N/A   Scattered Clouds
4:53 PM 26.1 °F 18.4 °F 18.0 °F 71% 29.58 in 10.0 mi ESE 6.9 mph - N/A   Mostly Cloudy
5:53 PM 24.1 °F 17.0 °F 18.0 °F 77% 29.59 in 10.0 mi ESE 5.8 mph - N/A   Scattered Clouds
6:53 PM 21.9 °F 12.5 °F 18.0 °F 85% 29.60 in 10.0 mi ESE 8.1 mph - N/A   Scattered Clouds
7:53 PM 21.0 °F 11.4 °F 17.1 °F 85% 29.62 in 10.0 mi ESE 8.1 mph - N/A   Mostly Cloudy
8:53 PM 19.9 °F 11.1 °F 17.1 °F 89% 29.63 in 10.0 mi ESE 6.9 mph - N/A   Mostly Cloudy
9:29 PM 19.4 °F 10.4 °F 15.8 °F 86% 29.55 in 10.0 mi ESE 6.9 mph - N/A   Scattered Clouds
9:53 PM 19.0 °F 10.0 °F 16.0 °F 88% 29.65 in 10.0 mi East 6.9 mph - N/A   Scattered Clouds
10:53 PM 21.0 °F 10.6 °F 17.1 °F 85% 29.65 in 10.0 mi ESE 9.2 mph - N/A   Overcast
11:53 PM 19.0 °F 11.1 °F 17.1 °F 92% 29.66 in 10.0 mi ESE 5.8 mph - N/A   Clear